AVA829 MROC-TNCB

Flight info

Callsign AVA829
Flight time 2h 8m
Altitude 35000
Route PARAI DCT LIO DCT ESKOR DCT AMBAS DCT IRLEP DCT IMOMA
Aircraft A320/M-SDE3FGHIRWY/LB1

Departure

Time 2026-04-25 20:20
Airport Juan Santamaría International Airport (MROC)

Arrival

Time 2026-04-25 22:28
Airport Flamingo International Airport (TNCB)
Time Latitude Longitude Altitude Speed Heading
2026-04-25 20:08 9.99753 -84.20350 3062 ft 3 kts 339°
2026-04-25 20:10 9.99752 -84.20349 3062 ft 2 kts 339°
2026-04-25 20:10 9.99728 -84.20341 3035 ft 4 kts 348°
2026-04-25 20:10 9.99701 -84.20338 3034 ft 4 kts
2026-04-25 20:10 9.99693 -84.20339 3033 ft 2 kts
2026-04-25 20:13 9.99692 -84.20339 3033 ft 0 kts
2026-04-25 20:14 9.99693 -84.20339 3034 ft 0 kts
2026-04-25 20:14 9.99702 -84.20313 3036 ft 12 kts 70°
2026-04-25 20:15 9.99731 -84.20233 3036 ft 11 kts 69°
2026-04-25 20:15 9.99756 -84.20166 3035 ft 9 kts 69°
2026-04-25 20:15 9.99776 -84.20112 3035 ft 7 kts 69°
2026-04-25 20:15 9.99793 -84.20070 3035 ft 7 kts 69°
2026-04-25 20:16 9.99789 -84.20018 3034 ft 13 kts 123°
2026-04-25 20:16 9.99709 -84.19978 3037 ft 11 kts 163°
2026-04-25 20:16 9.99637 -84.19953 3035 ft 10 kts 159°
2026-04-25 20:16 9.99590 -84.19893 3037 ft 15 kts 85°
2026-04-25 20:17 9.99618 -84.19805 3039 ft 11 kts 68°
2026-04-25 20:17 9.99641 -84.19747 3042 ft 6 kts 68°
2026-04-25 20:17 9.99651 -84.19721 3042 ft 3 kts 69°
2026-04-25 20:17 9.99662 -84.19690 3044 ft 3 kts 69°
2026-04-25 20:18 9.99664 -84.19685 3045 ft 1 kts 69°
2026-04-25 20:18 9.99671 -84.19668 3045 ft 10 kts 69°
2026-04-25 20:18 9.99700 -84.19588 3051 ft 13 kts 69°
2026-04-25 20:18 9.99771 -84.19526 3054 ft 13 kts 355°
2026-04-25 20:19 9.99848 -84.19548 3055 ft 11 kts 341°
2026-04-25 20:19 9.99868 -84.19606 3051 ft 12 kts 248°
2026-04-25 20:19 9.99833 -84.19700 3048 ft 19 kts 250°
2026-04-25 20:19 9.99708 -84.20040 3039 ft 91 kts 249°
2026-04-25 20:20 9.99397 -84.20866 3024 ft 157 kts 249°
2026-04-25 20:20 9.98950 -84.22037 3311 ft 194 kts 251°
2026-04-25 20:20 9.98442 -84.23320 4228 ft 195 kts 248°
2026-04-25 20:20 9.97931 -84.24589 4818 ft 201 kts 248°
2026-04-25 20:21 9.97341 -84.25955 4972 ft 224 kts 238°
2026-04-25 20:21 9.96099 -84.26987 5196 ft 248 kts 199°
2026-04-25 20:21 9.94309 -84.27196 5513 ft 271 kts 177°
2026-04-25 20:21 9.92400 -84.26948 6180 ft 278 kts 170°
2026-04-25 20:22 9.90483 -84.26553 6892 ft 283 kts 168°
2026-04-25 20:22 9.89218 -84.26231 7363 ft 285 kts 160°
2026-04-25 20:22 9.86968 -84.24783 8321 ft 290 kts 141°
2026-04-25 20:22 9.85353 -84.23531 9057 ft 293 kts 144°
2026-04-25 20:23 9.83694 -84.22322 9797 ft 295 kts 144°
2026-04-25 20:23 9.82149 -84.20932 10417 ft 300 kts 130°
2026-04-25 20:23 9.81012 -84.19120 10635 ft 321 kts 112°
2026-04-25 20:23 9.80482 -84.16856 10768 ft 342 kts 92°
2026-04-25 20:24 9.80605 -84.14379 10887 ft 362 kts 84°
2026-04-25 20:24 9.80827 -84.11773 11107 ft 377 kts 85°
2026-04-25 20:24 9.81050 -84.09101 11611 ft 383 kts 85°
2026-04-25 20:24 9.81269 -84.06402 12148 ft 387 kts 85°
2026-04-25 20:25 9.81484 -84.03661 12660 ft 391 kts 85°
2026-04-25 20:25 9.81692 -84.00908 13187 ft 394 kts 85°
2026-04-25 20:25 9.81900 -83.98119 13709 ft 398 kts 85°
2026-04-25 20:25 9.82154 -83.95319 14161 ft 400 kts 81°
2026-04-25 20:26 9.82747 -83.92553 14606 ft 403 kts 76°
2026-04-25 20:26 9.83407 -83.89778 15044 ft 406 kts 76°
2026-04-25 20:26 9.84072 -83.86991 15487 ft 408 kts 76°
2026-04-25 20:26 9.84738 -83.84181 15913 ft 410 kts 77°
2026-04-25 20:27 9.85200 -83.81322 16321 ft 413 kts 81°
2026-04-25 20:27 9.85608 -83.78431 16729 ft 416 kts 81°
2026-04-25 20:27 9.86020 -83.75517 17144 ft 418 kts 81°
2026-04-25 20:27 9.86430 -83.72626 17548 ft 420 kts 81°
2026-04-25 20:28 9.86846 -83.69679 17939 ft 423 kts 81°
2026-04-25 20:28 9.87264 -83.66722 18307 ft 425 kts 81°
2026-04-25 20:28 9.87688 -83.63741 18624 ft 428 kts 81°
2026-04-25 20:28 9.88114 -83.60761 18964 ft 429 kts 81°
2026-04-25 20:29 9.88545 -83.57747 19304 ft 431 kts 81°
2026-04-25 20:29 9.88975 -83.54735 19641 ft 433 kts 81°
2026-04-25 20:29 9.89407 -83.51704 19973 ft 435 kts 81°
2026-04-25 20:29 9.89839 -83.48661 20303 ft 437 kts 81°
2026-04-25 20:30 9.90271 -83.45601 20638 ft 439 kts 81°
2026-04-25 20:30 9.90704 -83.42539 20963 ft 440 kts 81°
2026-04-25 20:30 9.91140 -83.39455 21280 ft 442 kts 81°
2026-04-25 20:30 9.91576 -83.36361 21585 ft 444 kts 81°
2026-04-25 20:31 9.92013 -83.33261 21891 ft 445 kts 81°
2026-04-25 20:31 9.92455 -83.30140 22198 ft 447 kts 81°
2026-04-25 20:31 9.92898 -83.27025 22511 ft 448 kts 81°
2026-04-25 20:31 9.93343 -83.23888 22805 ft 450 kts 81°
2026-04-25 20:32 9.93787 -83.20732 23098 ft 451 kts 81°
2026-04-25 20:32 9.94226 -83.17582 23372 ft 453 kts 81°
2026-04-25 20:32 9.94669 -83.14410 23614 ft 455 kts 81°
2026-04-25 20:32 9.95117 -83.11228 23838 ft 456 kts 81°
2026-04-25 20:33 9.95561 -83.08076 24052 ft 459 kts 81°
2026-04-25 20:33 9.96015 -83.04867 24251 ft 461 kts 81°
2026-04-25 20:33 9.96574 -83.01668 24451 ft 462 kts 75°
2026-04-25 20:33 9.97104 -82.99523 24579 ft 463 kts 75°
2026-04-25 20:34 9.98144 -82.95307 24838 ft 466 kts 75°
2026-04-25 20:34 9.98926 -82.92111 25035 ft 468 kts 75°
2026-04-25 20:34 9.99705 -82.88903 25220 ft 470 kts 75°
2026-04-25 20:34 10.00487 -82.85676 25412 ft 472 kts 75°
2026-04-25 20:35 10.01272 -82.82438 25593 ft 473 kts 76°
2026-04-25 20:35 10.02060 -82.79192 25781 ft 475 kts 76°
2026-04-25 20:35 10.02853 -82.75932 25967 ft 477 kts 76°
2026-04-25 20:35 10.03651 -82.72661 26157 ft 478 kts 76°
2026-04-25 20:36 10.04453 -82.69381 26341 ft 480 kts 76°
2026-04-25 20:36 10.05256 -82.66090 26527 ft 481 kts 76°
2026-04-25 20:36 10.06060 -82.62786 26711 ft 483 kts 76°
2026-04-25 20:36 10.06868 -82.59470 26910 ft 484 kts 76°
2026-04-25 20:37 10.07675 -82.56157 27174 ft 484 kts 76°
2026-04-25 20:37 10.08481 -82.52841 27435 ft 483 kts 76°
2026-04-25 20:37 10.09284 -82.49528 27700 ft 483 kts 76°
2026-04-25 20:37 10.10088 -82.46215 27963 ft 483 kts 76°
2026-04-25 20:38 10.10893 -82.42904 28230 ft 483 kts 76°
2026-04-25 20:38 10.11696 -82.39600 28484 ft 483 kts 76°
2026-04-25 20:38 10.12491 -82.36323 28748 ft 483 kts 76°
2026-04-25 20:38 10.13291 -82.33017 29018 ft 483 kts 76°
2026-04-25 20:39 10.14092 -82.29710 29291 ft 483 kts 76°
2026-04-25 20:39 10.14891 -82.26406 29567 ft 483 kts 76°
2026-04-25 20:39 10.15697 -82.23084 29846 ft 483 kts 76°
2026-04-25 20:39 10.15968 -82.21966 29927 ft 483 kts 76°
2026-04-25 20:40 10.17303 -82.16464 30323 ft 483 kts 76°
2026-04-25 20:40 10.18105 -82.13149 30563 ft 482 kts 77°
2026-04-25 20:40 10.18899 -82.09850 30814 ft 481 kts 77°
2026-04-25 20:40 10.19691 -82.06546 31070 ft 481 kts 77°
2026-04-25 20:41 10.20482 -82.03246 31322 ft 480 kts 77°
2026-04-25 20:41 10.21272 -81.99955 31577 ft 480 kts 77°
2026-04-25 20:41 10.22065 -81.96663 31829 ft 479 kts 77°
2026-04-25 20:41 10.22859 -81.93382 32084 ft 479 kts 77°
2026-04-25 20:42 10.23647 -81.90143 32336 ft 478 kts 77°
2026-04-25 20:42 10.24444 -81.86871 32601 ft 478 kts 77°
2026-04-25 20:42 10.25237 -81.83596 32864 ft 477 kts 77°
2026-04-25 20:42 10.26027 -81.80325 33121 ft 477 kts 77°
2026-04-25 20:43 10.26814 -81.77055 33380 ft 476 kts 77°
2026-04-25 20:43 10.27597 -81.73785 33643 ft 476 kts 78°
2026-04-25 20:43 10.28373 -81.70523 33904 ft 475 kts 78°
2026-04-25 20:43 10.29152 -81.67260 34132 ft 475 kts 78°
2026-04-25 20:44 10.29931 -81.64001 34346 ft 475 kts 78°
2026-04-25 20:44 10.30711 -81.60751 34566 ft 474 kts 77°
2026-04-25 20:44 10.31494 -81.57502 34770 ft 474 kts 77°
2026-04-25 20:44 10.32279 -81.54241 34868 ft 476 kts 77°
2026-04-25 20:45 10.33846 -81.47678 34877 ft 480 kts 78°
2026-04-25 20:45 10.35419 -81.41079 34878 ft 480 kts 78°
2026-04-25 20:46 10.37000 -81.34485 34876 ft 480 kts 77°
2026-04-25 20:46 10.38583 -81.27883 34876 ft 480 kts 78°
2026-04-25 20:47 10.40154 -81.21293 34879 ft 480 kts 78°
2026-04-25 20:47 10.41710 -81.14737 34877 ft 480 kts 78°
2026-04-25 20:48 10.43283 -81.08147 34867 ft 480 kts 78°
2026-04-25 20:48 10.44847 -81.01549 34870 ft 480 kts 78°
2026-04-25 20:49 10.46417 -80.94942 34868 ft 481 kts 78°
2026-04-25 20:49 10.47985 -80.88349 34864 ft 481 kts 78°
2026-04-25 20:50 10.49554 -80.81736 34863 ft 481 kts 78°
2026-04-25 20:50 10.50858 -80.76244 34861 ft 481 kts 78°
2026-04-25 20:51 10.52422 -80.69633 34870 ft 481 kts 78°
2026-04-25 20:51 10.53982 -80.63020 34866 ft 481 kts 78°
2026-04-25 20:52 10.55277 -80.57531 34861 ft 481 kts 78°
2026-04-25 20:52 10.57112 -80.49804 34867 ft 480 kts 78°
2026-04-25 20:53 10.58664 -80.43199 34865 ft 480 kts 78°
2026-04-25 20:53 10.60223 -80.36602 34867 ft 480 kts 77°
2026-04-25 20:54 10.61784 -80.29998 34868 ft 480 kts 77°
2026-04-25 20:54 10.63334 -80.23396 34870 ft 480 kts 78°
2026-04-25 20:55 10.64882 -80.16798 34869 ft 480 kts 78°
2026-04-25 20:55 10.66424 -80.10204 34869 ft 479 kts 78°
2026-04-25 20:56 10.67975 -80.03621 34872 ft 479 kts 78°
2026-04-25 20:56 10.69518 -79.97032 34870 ft 479 kts 78°
2026-04-25 20:57 10.71039 -79.90493 34874 ft 478 kts 78°
2026-04-25 20:57 10.72585 -79.83908 34867 ft 478 kts 78°
2026-04-25 20:58 10.74122 -79.77332 34868 ft 479 kts 78°
2026-04-25 20:58 10.75659 -79.70741 34867 ft 479 kts 78°
2026-04-25 20:59 10.77196 -79.64148 34861 ft 479 kts 78°
2026-04-25 20:59 10.78728 -79.57552 34865 ft 479 kts 78°
2026-04-25 21:00 10.80008 -79.52067 34868 ft 480 kts 78°
2026-04-25 21:01 10.82558 -79.41087 34862 ft 480 kts 78°
2026-04-25 21:01 10.84093 -79.34468 34862 ft 481 kts 78°
2026-04-25 21:02 10.85621 -79.27853 34873 ft 481 kts 78°
2026-04-25 21:02 10.87158 -79.21228 34868 ft 481 kts 78°
2026-04-25 21:03 10.88694 -79.14600 34869 ft 481 kts 78°
2026-04-25 21:03 10.90229 -79.07967 34875 ft 481 kts 78°
2026-04-25 21:04 10.91761 -79.01337 34864 ft 481 kts 78°
2026-04-25 21:04 10.93282 -78.94704 34873 ft 482 kts 78°
2026-04-25 21:05 10.94815 -78.88057 34867 ft 482 kts 78°
2026-04-25 21:05 10.96351 -78.81417 34869 ft 482 kts 78°
2026-04-25 21:06 10.97866 -78.74811 34865 ft 482 kts 78°
2026-04-25 21:06 10.99391 -78.68169 34864 ft 482 kts 78°
2026-04-25 21:07 11.00916 -78.61510 34869 ft 482 kts 78°
2026-04-25 21:07 11.02442 -78.54861 34869 ft 482 kts 78°
2026-04-25 21:08 11.03968 -78.48214 34866 ft 483 kts 78°
2026-04-25 21:08 11.05490 -78.41547 34869 ft 483 kts 78°
2026-04-25 21:09 11.07767 -78.31554 34868 ft 484 kts 78°
2026-04-25 21:09 11.09276 -78.24926 34868 ft 484 kts 78°
2026-04-25 21:10 11.10804 -78.18255 34873 ft 484 kts 78°
2026-04-25 21:10 11.12324 -78.11569 34870 ft 484 kts 78°
2026-04-25 21:11 11.13841 -78.04892 34870 ft 484 kts 78°
2026-04-25 21:11 11.15363 -77.98211 34869 ft 484 kts 78°
2026-04-25 21:12 11.16879 -77.91529 34874 ft 484 kts 78°
2026-04-25 21:12 11.18138 -77.85980 34869 ft 484 kts 78°
2026-04-25 21:13 11.19915 -77.78165 34864 ft 484 kts 78°
2026-04-25 21:13 11.21410 -77.71523 34869 ft 484 kts 78°
2026-04-25 21:14 11.22916 -77.64832 34874 ft 484 kts 78°
2026-04-25 21:14 11.24426 -77.58137 34875 ft 484 kts 78°
2026-04-25 21:15 11.25929 -77.51452 34871 ft 485 kts 78°
2026-04-25 21:15 11.27434 -77.44761 34869 ft 485 kts 78°
2026-04-25 21:16 11.28945 -77.38052 34871 ft 485 kts 78°
2026-04-25 21:16 11.30440 -77.31395 34868 ft 485 kts 78°
2026-04-25 21:17 11.31945 -77.24689 34870 ft 485 kts 78°
2026-04-25 21:17 11.33449 -77.17973 34869 ft 485 kts 78°
2026-04-25 21:18 11.34947 -77.11269 34878 ft 485 kts 78°
2026-04-25 21:18 11.36456 -77.04558 34869 ft 486 kts 78°
2026-04-25 21:19 11.37990 -76.97854 34874 ft 486 kts 77°
2026-04-25 21:19 11.39854 -76.91231 34862 ft 486 kts 74°
2026-04-25 21:20 11.41547 -76.85768 34865 ft 487 kts 73°
2026-04-25 21:20 11.43873 -76.78056 34870 ft 487 kts 75°
2026-04-25 21:21 11.45779 -76.71437 34868 ft 487 kts 75°
2026-04-25 21:21 11.47672 -76.64810 34866 ft 487 kts 75°
2026-04-25 21:22 11.49568 -76.58231 34860 ft 487 kts 75°
2026-04-25 21:22 11.51485 -76.51603 34859 ft 487 kts 75°
2026-04-25 21:23 11.53399 -76.44973 34859 ft 487 kts 75°
2026-04-25 21:23 11.55308 -76.38340 34862 ft 487 kts 75°
2026-04-25 21:24 11.57221 -76.31703 34866 ft 488 kts 75°
2026-04-25 21:24 11.59132 -76.25063 34862 ft 488 kts 75°
2026-04-25 21:25 11.61042 -76.18420 34863 ft 488 kts 75°
2026-04-25 21:25 11.62952 -76.11786 34862 ft 488 kts 75°
2026-04-25 21:26 11.64862 -76.05133 34866 ft 488 kts 75°
2026-04-25 21:26 11.66766 -75.98482 34868 ft 488 kts 75°
2026-04-25 21:27 11.68678 -75.91822 34870 ft 489 kts 75°
2026-04-25 21:27 11.70576 -75.85173 34867 ft 489 kts 75°
2026-04-25 21:28 11.72475 -75.78505 34868 ft 489 kts 75°
2026-04-25 21:28 11.74376 -75.71844 34867 ft 489 kts 75°
2026-04-25 21:29 11.76275 -75.65217 34865 ft 489 kts 75°
2026-04-25 21:29 11.78173 -75.58544 34872 ft 489 kts 75°
2026-04-25 21:30 11.80064 -75.51869 34870 ft 489 kts 75°
2026-04-25 21:30 11.81644 -75.46321 34871 ft 489 kts 75°
2026-04-25 21:31 11.83867 -75.38525 34871 ft 490 kts 75°
2026-04-25 21:31 11.85763 -75.31846 34868 ft 489 kts 75°
2026-04-25 21:32 11.87655 -75.25166 34867 ft 490 kts 75°
2026-04-25 21:32 11.89551 -75.18483 34870 ft 490 kts 75°
2026-04-25 21:33 11.91447 -75.11793 34876 ft 490 kts 75°
2026-04-25 21:33 11.93320 -75.05142 34876 ft 491 kts 75°
2026-04-25 21:34 11.95222 -74.98405 34876 ft 491 kts 75°
2026-04-25 21:34 11.97122 -74.91714 34882 ft 491 kts 75°
2026-04-25 21:35 11.99003 -74.85064 34886 ft 490 kts 75°
2026-04-25 21:35 12.00891 -74.78359 34886 ft 490 kts 75°
2026-04-25 21:36 12.02760 -74.71676 34889 ft 489 kts 75°
2026-04-25 21:36 12.04644 -74.64990 34889 ft 489 kts 75°
2026-04-25 21:37 12.05890 -74.60560 34887 ft 489 kts 75°
2026-04-25 21:37 12.08397 -74.51618 34887 ft 489 kts 76°
2026-04-25 21:38 12.10253 -74.44983 34890 ft 489 kts 76°
2026-04-25 21:38 12.11816 -74.39428 34895 ft 489 kts 76°
2026-04-25 21:39 12.13681 -74.32760 34893 ft 488 kts 76°
2026-04-25 21:39 12.15543 -74.26084 34894 ft 488 kts 76°
2026-04-25 21:40 12.17409 -74.19408 34894 ft 488 kts 76°
2026-04-25 21:40 12.19269 -74.12740 34892 ft 488 kts 76°
2026-04-25 21:41 12.21125 -74.06058 34886 ft 488 kts 76°
2026-04-25 21:41 12.22987 -73.99379 34887 ft 489 kts 76°
2026-04-25 21:42 12.24848 -73.92696 34885 ft 489 kts 76°
2026-04-25 21:42 12.26709 -73.86009 34884 ft 489 kts 76°
2026-04-25 21:43 12.28570 -73.79314 34884 ft 490 kts 76°
2026-04-25 21:43 12.30427 -73.72617 34885 ft 490 kts 76°
2026-04-25 21:44 12.32282 -73.65908 34890 ft 490 kts 76°
2026-04-25 21:45 12.35067 -73.55848 34891 ft 490 kts 76°
2026-04-25 21:45 12.36910 -73.49182 34896 ft 491 kts 76°
2026-04-25 21:46 12.38766 -73.42462 34894 ft 491 kts 76°
2026-04-25 21:46 12.40620 -73.35733 34892 ft 491 kts 76°
2026-04-25 21:47 12.42466 -73.29008 34891 ft 491 kts 76°
2026-04-25 21:47 12.44321 -73.22277 34893 ft 492 kts 76°
2026-04-25 21:48 12.46181 -73.15547 34898 ft 492 kts 76°
2026-04-25 21:48 12.48026 -73.08803 34900 ft 492 kts 76°
2026-04-25 21:49 12.49865 -73.02056 34899 ft 492 kts 76°
2026-04-25 21:49 12.51714 -72.95305 34902 ft 492 kts 76°
2026-04-25 21:50 12.53560 -72.88603 34901 ft 492 kts 76°
2026-04-25 21:50 12.55406 -72.81863 34908 ft 492 kts 76°
2026-04-25 21:51 12.57247 -72.75112 34906 ft 492 kts 76°
2026-04-25 21:51 12.59086 -72.68370 34906 ft 492 kts 76°
2026-04-25 21:52 12.60928 -72.61623 34908 ft 492 kts 76°
2026-04-25 21:52 12.62764 -72.54878 34906 ft 491 kts 76°
2026-04-25 21:53 12.64595 -72.48139 34904 ft 491 kts 76°
2026-04-25 21:53 12.66422 -72.41403 34907 ft 491 kts 76°
2026-04-25 21:54 12.68254 -72.34668 34906 ft 490 kts 76°
2026-04-25 21:54 12.70072 -72.27952 34904 ft 490 kts 76°
2026-04-25 21:55 12.71873 -72.21266 34899 ft 489 kts 76°
2026-04-25 21:55 12.73696 -72.14541 34901 ft 489 kts 76°
2026-04-25 21:56 12.75518 -72.07830 34898 ft 490 kts 77°
2026-04-25 21:56 12.77338 -72.01097 34894 ft 490 kts 77°
2026-04-25 21:57 12.79153 -71.94372 34892 ft 490 kts 77°
2026-04-25 21:57 12.80801 -71.87615 34891 ft 487 kts 85°
2026-04-25 21:58 12.80811 -71.80748 34886 ft 479 kts 102°
2026-04-25 21:58 12.79526 -71.74126 34883 ft 477 kts 105°
2026-04-25 21:59 12.78199 -71.67460 34884 ft 478 kts 105°
2026-04-25 21:59 12.76873 -71.60779 34886 ft 479 kts 105°
2026-04-25 22:00 12.74884 -71.50741 34884 ft 479 kts 105°
2026-04-25 22:00 12.73561 -71.44055 34884 ft 479 kts 105°
2026-04-25 22:01 12.72237 -71.37365 34881 ft 479 kts 105°
2026-04-25 22:01 12.71133 -71.31793 34885 ft 479 kts 105°
2026-04-25 22:02 12.69585 -71.24026 34891 ft 479 kts 105°
2026-04-25 22:02 12.68254 -71.17345 34895 ft 479 kts 105°
2026-04-25 22:03 12.66915 -71.10666 34895 ft 478 kts 105°
2026-04-25 22:03 12.65581 -71.03999 34893 ft 478 kts 105°
2026-04-25 22:04 12.64257 -70.97336 34889 ft 478 kts 105°
2026-04-25 22:04 12.62912 -70.90669 34893 ft 477 kts 105°
2026-04-25 22:05 12.61565 -70.84014 34893 ft 477 kts 105°
2026-04-25 22:05 12.60220 -70.77355 34896 ft 477 kts 105°
2026-04-25 22:06 12.58886 -70.70704 34896 ft 477 kts 105°
2026-04-25 22:06 12.57544 -70.64051 34901 ft 477 kts 105°
2026-04-25 22:07 12.56428 -70.58525 34898 ft 477 kts 105°
2026-04-25 22:07 12.54854 -70.50759 34900 ft 477 kts 105°
2026-04-25 22:08 12.53510 -70.44111 34904 ft 477 kts 105°
2026-04-25 22:08 12.52161 -70.37472 34901 ft 476 kts 105°
2026-04-25 22:09 12.50812 -70.30843 34906 ft 476 kts 105°
2026-04-25 22:09 12.49469 -70.24240 34915 ft 476 kts 105°
2026-04-25 22:10 12.48119 -70.17608 34742 ft 477 kts 105°
2026-04-25 22:10 12.47441 -70.14278 34519 ft 477 kts 104°
2026-04-25 22:10 12.46764 -70.10959 34296 ft 477 kts 104°
2026-04-25 22:11 12.46084 -70.07627 34070 ft 478 kts 104°
2026-04-25 22:11 12.45405 -70.04298 33837 ft 478 kts 104°
2026-04-25 22:11 12.44724 -70.00968 33578 ft 479 kts 104°
2026-04-25 22:11 12.44040 -69.97611 33322 ft 481 kts 104°
2026-04-25 22:12 12.43356 -69.94260 33065 ft 482 kts 104°
2026-04-25 22:12 12.42670 -69.90904 32816 ft 483 kts 104°
2026-04-25 22:12 12.41979 -69.87528 32564 ft 485 kts 103°
2026-04-25 22:12 12.41521 -69.85288 32391 ft 486 kts 103°
2026-04-25 22:13 12.40594 -69.80761 32068 ft 488 kts 103°
2026-04-25 22:13 12.39898 -69.77353 31821 ft 489 kts 103°
2026-04-25 22:13 12.39199 -69.73947 31028 ft 493 kts 103°
2026-04-25 22:13 12.38483 -69.70479 29828 ft 503 kts 102°
2026-04-25 22:14 12.37761 -69.66990 28559 ft 510 kts 102°
2026-04-25 22:14 12.37012 -69.63372 27429 ft 514 kts 102°
2026-04-25 22:14 12.36274 -69.59804 26343 ft 516 kts 102°
2026-04-25 22:14 12.35545 -69.56264 25358 ft 515 kts 102°
2026-04-25 22:15 12.34805 -69.52671 24365 ft 515 kts 102°
2026-04-25 22:15 12.34073 -69.49112 23609 ft 509 kts 102°
2026-04-25 22:15 12.33347 -69.45586 22767 ft 503 kts 102°
2026-04-25 22:16 12.31919 -69.38687 21214 ft 490 kts 102°
2026-04-25 22:16 12.31219 -69.35302 20462 ft 484 kts 102°
2026-04-25 22:16 12.30543 -69.31957 19736 ft 478 kts 102°
2026-04-25 22:16 12.29892 -69.28654 19036 ft 473 kts 102°
2026-04-25 22:17 12.29256 -69.25373 18362 ft 467 kts 102°
2026-04-25 22:17 12.28627 -69.22124 17627 ft 462 kts 102°
2026-04-25 22:17 12.28002 -69.18922 16909 ft 457 kts 102°
2026-04-25 22:17 12.27379 -69.15758 16223 ft 452 kts 102°
2026-04-25 22:18 12.26761 -69.12627 15541 ft 447 kts 102°
2026-04-25 22:18 12.26150 -69.09536 14887 ft 442 kts 101°
2026-04-25 22:18 12.25544 -69.06472 14235 ft 437 kts 101°
2026-04-25 22:18 12.24943 -69.03439 13589 ft 432 kts 101°
2026-04-25 22:19 12.24357 -69.00477 13325 ft 417 kts 101°
2026-04-25 22:19 12.23793 -68.97628 13194 ft 399 kts 101°
2026-04-25 22:19 12.23253 -68.94907 13066 ft 384 kts 101°
2026-04-25 22:19 12.22737 -68.92311 12938 ft 369 kts 101°
2026-04-25 22:20 12.22234 -68.89784 12812 ft 356 kts 101°
2026-04-25 22:20 12.21748 -68.87343 12688 ft 343 kts 101°
2026-04-25 22:20 12.21280 -68.84993 12559 ft 332 kts 101°
2026-04-25 22:20 12.20828 -68.82718 12433 ft 322 kts 101°
2026-04-25 22:21 12.20388 -68.80502 12186 ft 316 kts 101°
2026-04-25 22:21 12.19953 -68.78309 11865 ft 313 kts 101°
2026-04-25 22:21 12.19520 -68.76128 11522 ft 312 kts 101°
2026-04-25 22:21 12.19091 -68.73957 11182 ft 310 kts 101°
2026-04-25 22:22 12.18669 -68.71834 10857 ft 308 kts 101°
2026-04-25 22:22 12.18240 -68.69694 10513 ft 307 kts 101°
2026-04-25 22:22 12.17812 -68.67557 10170 ft 305 kts 101°
2026-04-25 22:22 12.17387 -68.65436 9839 ft 304 kts 101°
2026-04-25 22:23 12.16965 -68.63328 9468 ft 302 kts 101°
2026-04-25 22:23 12.16540 -68.61187 8676 ft 314 kts 101°
2026-04-25 22:23 12.16098 -68.58955 7842 ft 322 kts 101°
2026-04-25 22:23 12.15656 -68.56727 7033 ft 320 kts 102°
2026-04-25 22:24 12.15212 -68.54501 6232 ft 318 kts 102°
2026-04-25 22:24 12.14771 -68.52297 5421 ft 315 kts 102°
2026-04-25 22:24 12.14334 -68.50117 4622 ft 311 kts 102°
2026-04-25 22:24 12.13904 -68.47973 3828 ft 306 kts 102°
2026-04-25 22:25 12.13611 -68.45860 3308 ft 292 kts 95°
2026-04-25 22:25 12.13492 -68.43847 2922 ft 276 kts 92°
2026-04-25 22:25 12.13443 -68.41947 2553 ft 261 kts 91°
2026-04-25 22:25 12.13416 -68.40134 2184 ft 248 kts 91°
2026-04-25 22:26 12.13389 -68.38418 1892 ft 234 kts 91°
2026-04-25 22:26 12.13357 -68.36824 1810 ft 217 kts 91°
2026-04-25 22:26 12.13323 -68.35316 1385 ft 208 kts 91°
2026-04-25 22:26 12.13286 -68.33900 1045 ft 196 kts 92°
2026-04-25 22:27 12.13250 -68.32573 803 ft 178 kts 91°
2026-04-25 22:27 12.13215 -68.31358 537 ft 164 kts 91°
2026-04-25 22:27 12.13187 -68.30256 518 ft 144 kts 89°
2026-04-25 22:27 12.13157 -68.29255 354 ft 137 kts 93°
2026-04-25 22:28 12.13125 -68.28226 134 ft 145 kts 91°
2026-04-25 22:28 12.13098 -68.27254 30 ft 125 kts 91°
2026-04-25 22:28 12.13075 -68.26525 28 ft 78 kts 92°
2026-04-25 22:28 12.13064 -68.26235 29 ft 45 kts 92°
2026-04-25 22:29 12.13061 -68.26047 29 ft 17 kts 87°
2026-04-25 22:29 12.13089 -68.25959 29 ft 8 kts 130°
2026-04-25 22:29 12.13065 -68.25977 29 ft 7 kts 245°
2026-04-25 22:30 12.13062 -68.26107 29 ft 9 kts 272°
2026-04-25 22:30 12.13067 -68.26226 29 ft 21 kts 274°
2026-04-25 22:30 12.13069 -68.26371 28 ft 20 kts 270°
2026-04-25 22:30 12.13071 -68.26462 28 ft 19 kts 272°
2026-04-25 22:31 12.13078 -68.26637 28 ft 18 kts 272°
2026-04-25 22:31 12.13081 -68.26756 28 ft 16 kts 271°
2026-04-25 22:31 12.13083 -68.26869 27 ft 15 kts 271°
2026-04-25 22:31 12.13087 -68.26983 27 ft 18 kts 273°
2026-04-25 22:32 12.13093 -68.27105 28 ft 17 kts 272°
2026-04-25 22:32 12.13097 -68.27216 28 ft 15 kts 271°
2026-04-25 22:32 12.13099 -68.27318 28 ft 14 kts 271°
2026-04-25 22:32 12.13101 -68.27412 27 ft 13 kts 271°
2026-04-25 22:33 12.13104 -68.27497 28 ft 11 kts 272°
2026-04-25 22:33 12.13106 -68.27571 28 ft 10 kts 272°
2026-04-25 22:33 12.13109 -68.27641 29 ft 10 kts 272°
2026-04-25 22:33 12.13111 -68.27711 28 ft 9 kts 272°
2026-04-25 22:34 12.13134 -68.27767 28 ft 8 kts 320°
2026-04-25 22:34 12.13182 -68.27774 28 ft 6 kts 355°
2026-04-25 22:34 12.13225 -68.27775 28 ft 6 kts
2026-04-25 22:34 12.13259 -68.27771 28 ft 4 kts 28°
2026-04-25 22:35 12.13264 -68.27754 28 ft 2 kts 94°
2026-04-25 22:35 12.13263 -68.27750 28 ft 0 kts 105°